FREGAT DEB, 45840

Orbit data source: Space-Track

FREGAT DEB, 45840 is space debris in LEO originally from a launch on Mon, 18 Jul 2011 UTC launched from the Tyuratam Missile And Space Complex (TTMTR). Debris objects in space refer to the collection of defunct objects orbiting the Earth. Examples of debris include non-operational satellites, rocket bodies, and fragments generated from explosions, collisions, or faulty payload assembly.

Loading next visibility...
Identifier
45840, 2011-037CA
Orbit
LEO
Last TLE update
2 days ago
Origin
Manufacturer
Lavochkin
Mission
Spacecraft
Bus & Motor
Unknown
Mass
Unknown
Launch date (UTC)
2011-07-18 (14 years ago)
Launch vehicle
Unknown
Launch site
Tyuratam Missile And Space Complex (TTMTR)
Object type
Payload
Rocket body
Debris
Shape & HBR
Unknown
Radar Cross Section
Small (<0.1 m²)

Expand to show TLE details & history

TLE from 2 days ago
0 FREGAT DEB
1 45840U 11037CA  25184.91294471  .00012450  00000-0  40544-2 0  9991
2 45840  51.5511 143.3337 1948620 300.5811  41.6869 11.07317413197798
Epoch: 2025-07-03T21:54Z
TLE epoch observation values (Epoch: 2025-07-03T21:54:38.422Z)
Latitude
-0.00003°
Longitude
-107.49929°
Altitude
1,066.355 km
Speed
7.761 km/s
True Right ascension
09h 33m 20s
True Declination
0° 00' 00"
Sunlit
Object was in daylight at epoch
Visualization orbit readout
Latitude
10.87266°
Longitude
58.77944°
Altitude
3,192.836 km
Speed
6.037 km/s
Apparent Right ascension
21h 20m 37s
Apparent Declination
-9° 20' 10"
Sunlit
Object is in daylight
Visualization observer readout
Local Sidereal Time
10:42:49
Azimuth
36.483° NE
Elevation
-54.366°
Doppler factor
1
Orbital elements
Apogee altitude
3,781.874 km
Perigee altitude
468.019 km
Semi-major axis
8,503.084 km
Eccentricity
0.19486
Inclination
51.5511°
RAAN
143.3337°
Arg. of periapsis
300.5811°
True anomaly
Unknown
Mean anomaly
41.6869°
Eccentric anomaly
Unknown
Mean motion
2.76808 °/min
Orbital period
130.05 mins
BSTAR
0.0040544
Loading maneuver chart data...
Loading SW <> Apogee altitude chart data...
Loading historical data...
Loading historical data...
Loading historical data...
Loading historical data...
Loading historical data...
Loading historical data...
Loading historical data...

FREGAT DEB Visibility forecast

Observer location: undefined°, undefined°

Span
Click to sort rows by Start time (UTC) header in descending order
Start Az.
Max El. time (UTC)
Max El. Az.
Max El.
End time (UTC)
End Az.
29 mins2025-07-05 23:52:34.770Z230.221° WSW2025-07-06 00:02:34.770Z50.345° ENE45°2025-07-06 00:21:34.770Z54.712° ENE
34 mins2025-07-06 02:10:34.770Z276.134° WNW2025-07-06 02:23:34.770Z354.464° N40.588°2025-07-06 02:44:34.770Z70.096° E
40 mins2025-07-06 04:29:34.770Z299.84° NW2025-07-06 04:46:34.770Z15.89° NNE42.516°2025-07-06 05:09:34.770Z103.84° ESE
40 mins2025-07-06 06:48:34.770Z305.914° NW2025-07-06 07:08:34.770Z231.383° WSW44.154°2025-07-06 07:28:34.770Z145.682° SSE
31 mins2025-07-06 09:09:34.770Z297.358° NW2025-07-06 09:25:34.770Z249.92° W26.974°2025-07-06 09:40:34.770Z197.153° SSW
17 mins2025-07-06 21:31:34.770Z157.403° SSE2025-07-06 21:37:34.770Z108.612° ESE26.242°2025-07-06 21:48:34.770Z60.991° ENE
|